www.pogodaiklimat.ru

Погода и климат >> Архив погоды >> Россия >> Дагестан >> Изберг


ПОГОДА в Изберге

  • Прогноз погоды в Изберге
  • Монитор погоды в Изберге
  • Климат города

АРХИВ ПОГОДЫ в Изберге

Время (UTC), дата Ветер
(напр.,м/с)
 
Видим.   Явления Облачность Т
(С)
Тd
(С)
f
(%)
Тe
(С)
Тes
(С)
Комфортность P
(гПа)
Po
(гПа)
Тmin
(С)
Tmax
(С)
R
(мм)
R24
(мм)
S
(см)
21 18.04 Ю 2 20 км 10/0
[Cs]
+6.9 +4.9 87 +5 +5 1017.5 1019.7
00 19.04 З 1 20 км 10/0
[Cs]
+6.1 +4.6 90 +5 +5 1015.2 1017.4
03 19.04 СЗ 2 20 км 10/3 600 м
[Cu hum Ac As Ci]
+7.3 +5.8 90 +5 +5 1014.2 1016.4 +5.6
06 19.04 СВ 1 1000 м в посл. час туман 10/0
[Ac As]
+9.6 +7.9 89 +9 +13 1013.1 1015.3
09 19.04 В 2 20 км 4/1 600 м
[Cu hum Ac lent]
+11.6 +8.5 81 +10 +21 опасность
простуды
1011.4 1013.6
12 19.04 В 3 20 км 6/0
[Ac lent Ci fib]
+12.6 +8.3 75 +11 +16 1010.2 1012.4
15 19.04 ЮВ 3 20 км 9/3 600 м
[Cu hum Ac lent Cs]
+12.1 +8.8 80 +11 +11 1009.3 1011.5 +13.1
18 19.04 ЮВ 2 20 км 3/0
[Ac lent Ci fib]
+12.6 +6.1 65 +12 +12 1007.6 1009.8
21 19.04 З 2 20 км ясно +12.1 +4.5 60 +11 +11 1005.9 1008.0
00 20.04 СЗ 7-11
{15}
20 км 4/1 600 м
[Cu hum Ac lent]
+11.6 +7.8 77 +8 +8 1007.1 1009.3
03 20.04 Ю 2
{11}
20 км 9/3 600 м
[Cu hum Ac trans Ci fib]
+10.0 +6.5 79 +9 +9 1007.4 1009.6 +10.0
06 20.04 ЮВ 2 20 км 10/4 600 м
[Cb calv Ac und]
+13.0 +9.9 81 +12 +14 1008.2 1010.1
09 20.04 ЮВ 3 50 км 10/8 600 м
[Cb calv Ac lent]
+12.4 +9.1 80 +11 +12 1006.3 1008.5
12 20.04 ЮВ 1 50 км 10/8 600 м
[Cb calv Ac lent]
+12.2 +8.2 77 +12 +13 1006.8 1008.9
15 20.04 ЮВ 2 50 км 10/8 600 м
[Cb calv Ac und]
+12.0 +9.0 82 +11 +11 1006.9 1009.1 +13.6
18 20.04 ЮЗ 2 20 км 10/0
[Ac trans Cs]
+9.8 +6.6 80 +8 +8 1007.9 1010.1
21 20.04 С 2 20 км 10/10 600 м
[Cu hum]
+12.5 +7.2 70 +12 +12 1008.7 1010.9
00 21.04 СЗ 5
{12}
20 км 10/10 600 м
[Cu hum]
+13.0 +5.5 60 +11 +11 1008.7 1010.9
03 21.04 СВ 2 20 км 10/9 600 м
[Cb calv Ac trans]
+11.0 +7.7 80 +10 +10 1010.0 1012.1 +9.6
06 21.04 ЮВ 2 50 км 10/4 600 м
[Cb calv Ac As]
+12.3 +8.1 76 +11 +13 1011.4 1013.5
09 21.04 ЮВ 3 50 км 10/6 600 м
[Cb calv Ac trans]
+13.3 +8.5 73 +12 +14 1011.6 1013.8
12 21.04 В 5 50 км 10/5 600 м
[Cb calv Ac und]
+12.6 +8.2 75 +10 +11 1011.3 1013.5
15 21.04 ЮВ 2 20 км 10/8 600 м
[Cb calv Ac trans Ci fib]
+12.8 +8.1 73 +12 +12 1012.2 1014.4 +13.6
18 21.04 ЮЗ 2 20 км {ливн. осадки} 8/4 600 м
[Cu hum Ac trans]
+12.2 +8.5 78 +11 +11 1013.9 1016.1
21 21.04 ЮЗ 3 20 км 9/0
[Ac trans Ci]
+9.6 +7.2 85 +7 +7 1013.5 1015.7
00 22.04 ЮЗ 4 20 км 10/0
[Ac trans Ci]
+8.5 +5.6 82 +5 +5 1012.8 1015.0
03 22.04 ЮЗ 4 20 км 6/1 600 м
[Cu hum Ac lent Ci fib]
+8.8 +4.9 76 +6 +6 1012.8 1015.0 +7.6
06 22.04 ЮВ 3 50 км 4/1 600 м
[Cu med, cong Ac lent Ci fib]
+13.5 +9.2 75 +12 +19 1012.3 1014.4
09 22.04 ЮВ 5 50 км 3/1 600 м
[Cu med, cong Ac lent]
+14.4 +9.7 73 +13 +20 1010.2 1012.3
12 22.04 ЮВ 6 50 км 4/1 600 м
[Cu hum Ac lent Cs]
+14.2 +9.2 72 +12 +15 1008.8 1010.9
15 22.04 ЮВ 4 50 км 8/1 600 м
[Cu hum Ac trans Cs]
+12.1 +8.8 80 +10 +10 1009.3 1011.5 +15.1
18 22.04 Ю 1 20 км 8/0
[Ac trans Cs]
+9.7 +7.7 87 +9 +9 1010.4 1012.5
21 22.04 СЗ 3 20 км 10/0
[Ac und Ci fib]
+9.3 +7.1 86 +7 +7 1009.9 1012.0
00 23.04 СЗ 5 20 км 10/10 600 м
[Cu hum]
+15.7 +5.6 51 +15 +15 1009.9 1012.1
03 23.04 З 2 н/о н/о +14.1 +6.5 60 +14 +14 1010.9 1013.1 +8.3
06 23.04 ЮВ 1 50 км 10/10 600 м
[Cu hum]
+13.7 +8.5 71 +14 +14 1012.6 1014.7
09 23.04 В 2 20 км 10/3 600 м
[Cu hum Ac und]
+16.4 +6.4 52 +17 +20 1012.1 1014.3
12 23.04 ЮВ 1 20 км 10/0
[Ac und]
+15.9 +5.8 51 +17 +20 1011.9 1014.0
15 23.04 ЮВ 3 20 км 10/0
[Ac und]
+13.2 +9.2 77 +12 +12 1011.8 1013.9 +16.5
18 23.04 Ю 2 20 км 10/0
[Ac und]
+14.0 +6.8 62 +14 +14 1013.5 1015.7
21 23.04 СЗ 8-11
{17}
20 км 10/4 600 м
[Cu hum Ac und]
+12.4 +6.0 65 +9 +9 1015.3 1017.5
00 24.04 СЗ 3
{13}
20 км 10/3 600 м
[Cu hum Ac und]
+11.6 +5.5 66 +10 +10 1016.4 1018.6
03 24.04 ЮВ 2 20 км 10/0
[Ac und]
+10.8 +7.5 80 +10 +10 1017.9 1020.1 +10.8
06 24.04 Ю 1 50 км 10/10 600 м
[Cb calv]
+12.3 +7.5 72 +12 +12 1019.7 1021.9 +10.8
09 24.04 В 2 50 км {ливн. осадки} 10/8 600 м
[Cb calv Ac trans]
+13.1 +6.6 65 +13 +14 1021.1 1023.3
12 24.04 ЮВ 2 10 км слабый ливневой дождь 10/10 600 м
[Cb cap]
+11.7 +8.8 82 +11 +11 1022.0 1024.2
15 24.04 ЮВ 4 20 км {ливн. осадки} 9/8 600 м
[Cu hum Ac trans]
+11.3 +9.0 86 +9 +9 1021.5 1023.7 +13.7 0.3
18 24.04 ЮВ 2 20 км {ливн. осадки} 8/0
[Ac trans Ci]
+9.5 +6.8 83 +8 +8 1022.3 1024.5
21 24.04 ЮЗ 3 20 км 6/0
[Ci]
+7.6 +4.0 78 +5 +5 1021.4 1023.6
00 25.04 Ю 1 20 км 8/0
[Ac trans Ci]
+7.3 +2.9 74 +7 +7 1019.9 1022.1
03 25.04 Ю 2 50 км 4/0
[Ci]
+7.8 +3.2 73 +6 +7 1020.2 1022.4 +5.5
06 25.04 ЮВ 7-10
{11}
50 км 4/0
[Ac lent Ci fib]
+12.5 +8.4 76 +10 +12 1020.3 1022.5
09 25.04 В 6 20 км 4/0
[Ac lent Cs]
+13.2 +8.9 75 +11 +17 1018.9 1021.1
12 25.04 В 5 20 км 4/1
[Cu med, cong Cs]
+12.7 +9.7 82 +10 +15 1018.5 1020.7
15 25.04 ЮВ 4 20 км 6/1 600 м
[Cu hum Cs]
+11.1 +9.2 88 +9 +9 1018.4 1020.6 +13.9
18 25.04 Ю 2 20 км 9/0
[Ac und]
+9.8 +8.5 92 +8 +8 1019.0 1021.2

 

Местоположение метеостанции Изберг (Дагестан, Россия): широта 42.53 долгота 47.92 высота над уровнем моря -16 м.

В архиве по умолчанию представлена погода в Изберге за последнюю неделю. Архивные данные за месяц целиком и за предыдущие месяцы, начиная с января 2011 года, Вы можете получить, выбрав интересующий диапазон дат из раскрывающегося списка и нажав кнопку "Ввод!".


*Определитесь, кто Вы:
робот инопланетянин человек

Внимание! Время в таблицах - всемирное. Для получения местного времени необходимо прибавить поправку, которая в Изберге равна 3 ч.

Смотрите также архив погоды в соседних городах и на ближайших метеорологических станциях:

Погода в Сергокале (Дагестан, Россия) (22 км)
Погода в Дербенте (Дагестан, Россия) (60 км)
Погода в Махачкале (Дагестан, Россия) (65 км)
Погода в Куппе (Дагестан, Россия) (68 км)
Погода в Буйнакске (Дагестан, Россия) (73 км)
Погода в Гунибе (Дагестан, Россия) (79 км)
Погода в Кумухе (Дагестан, Россия) (80 км)
Погода в Касумкенте (Дагестан, Россия) (98 км)
Погода в Хунзахе (Дагестан, Россия) (100 км)
Погода в Ахты (Дагестан, Россия) (119 км)

Пояснения к столбцам:

Ветер - указаны скорость ветра в м/с - средняя за 10 мин, порывы в срок и между сроками (в фигурных скобках) и направление, откуда дует ветер: С - северный, СВ - северо-восточный, В - восточный, ЮВ - юго-восточный, Ю - южный, ЮЗ - юго-западный, З - западный, СЗ - северо-западный.
Видимость - горизонтальная дальность видимости в метрах или километрах. При видимости от 1 до 10 км при отсутствии осадков обычно наблюдается дымка, при ухудшении видимости до 1 км и менее - туман. В сухую погоду видимость может ухудшаться дымом, пылью или мглою.
Явления - указаны атмосферные явления, наблюдавшиеся в срок или в последний час перед сроком; фигурными скобками обозначены явления, наблюдавшиеся между сроками (за 1-3 часа до срока); квадратными скобками обозначены град или гололедные отложения с указанием их диаметра в мм.
Облачность - указаны через наклонную черту общая и нижняя облачность в баллах и высота нижней границы облаков в метрах; квадратными скобками обозначены формы облаков: Ci - перистые, Cs - перисто-слоистые, Cc - перисто-кучевые, Ac - высококучевые, As - высокослоистые, Sc - слоисто-кучевые, Ns - слоисто-дождевые, Cu - кучевые, Cb - кучево-дождевые. Подробнее классификацию облаков см. в Атласе облаков (PDF).
T - Температура воздуха - температура, измеренная на высоте 2 м над землей.
Td - Температура точки росы - температура, при понижении до которой содержащийся в воздухе водяной пар достигнет насыщения.
f - Относительная влажность воздуха - влажноcть воздуха, измеренная на высоте 2 м над землей.
Te - Эффективная температура - температура, которую ощущает одетый по сезону человек в тени. Характеристика душности погоды. При расчете учитывается влияние влажности воздуха и скорости ветра на теплоощущения человека.
Tes - Эффективная температура на солнце - температура, которую ощущает человек, с поправкой на солнечный нагрев. Характеристика знойности погоды. Зависит от высоты солнца над горизонтом, облачности и скорости ветра. Ночью, в пасмурную погоду, а также при ветре 12 м/с и более поправка равна нулю.
P - Атмосферное давление - приведенное к уровню моря атмосферное давление.
Po - Атмосферное давление - измеренное на уровне метеостанции атмосферное давление.
Tmin - Минимальная температура - минимум температуры воздуха на высоте 2 м над землей.
Tmax - Максимальная температура - максимум температуры воздуха на высоте 2 м над землей.
R - Количество осадков - Количество выпавших осадков за период времени, мм. При наведении курсора мыши на число - период времени, за который выпало указанное количество осадков.
R24 - Количество осадков - Количество выпавших осадков за 24 часа, мм.
S - Снежный покров - Высота снежного покрова, см. При наведении курсора мыши на число - состояние снежного покрова и степень покрытия местности в баллах.